Accueil
METAR-TAF:

METAR-TAF

Aéroports :

Pacific Missile Range Facility

Kekaha, Hawaï, États-Unis

latitude: 22-02-11N, longitude: 159-47-11W, altitude: 4 m

Observation

Le bulletin a été fait il y a 56 minutes, à 19:56 UTC
Vent 5 kt de ouest
Température 28°C
Humidité 66%
Pression 1017 hPa
Visibilité: 16.1 km
Ciel clair

METAR: PHBK 231956Z AUTO 27005KT 10SM CLR 28/21 A3003 RMK AO2 SLP169 T02830206

Heure: 10:52 (20:52 UTC)


TAF: absent

Observations et prévisions météorologiques de plus de 4000 aéroports (messages METAR et TAF).

Les stations disponibles sont représentées par des disques jaunes et rouges sur la carte.

Passer la souris dessus pour voir le nom de la station.

Cliquer dessus pour voir les observations et prévisions météorologiques.

Pour changer de carte: cliquez sur les boutons verts avec une croix noire pour zoomer, sur le bouton vert avec un tiret pour effectuer un zoom arrière, ou sur les flèches vertes pour les cartes adjacentes.


METAR-TAF: